| time (UTC) | temp F | wind direction | speed MPH | gust MPH | rain 1hr in | rain 24hr in | rain mn in | humidity % | barometer mb |
| 20260505213610 | 57 | 75 | 1.0 | 2.0 | 0.00 | 0.06 | 0.06 | 93 | 1013.8 |
| 20260505213007 | 57 | 77 | 1.0 | 2.0 | 0.00 | 0.06 | 0.06 | 93 | 1013.9 |
| 20260505212407 | 57 | 24 | 1.0 | 5.0 | 0.00 | 0.06 | 0.06 | 93 | 1013.9 |
| 20260505211807 | 57 | 11 | 2.0 | 2.0 | 0.00 | 0.06 | 0.06 | 93 | 1013.9 |
| 20260505211210 | 57 | 26 | 1.0 | 2.0 | 0.00 | 0.06 | 0.06 | 93 | 1013.9 |
| 20260505210609 | 57 | 60 | 0.0 | 2.0 | 0.00 | 0.06 | 0.06 | 93 | 1014.0 |
| 20260505205408 | 57 | 66 | 1.0 | 2.0 | 0.00 | 0.06 | 0.06 | 93 | 1013.9 |
| 20260505204807 | 57 | 66 | 1.0 | 3.0 | 0.00 | 0.06 | 0.06 | 93 | 1013.9 |
| 20260505204207 | 57 | 68 | 1.0 | 2.0 | 0.00 | 0.06 | 0.06 | 93 | 1013.9 |
| 20260505203607 | 57 | 70 | 3.0 | 4.0 | 0.00 | 0.06 | 0.06 | 93 | 1013.9 |
| 20260505202408 | 57 | 77 | 2.0 | 3.0 | 0.00 | 0.06 | 0.06 | 93 | 1013.9 |
| 20260505201810 | 57 | 73 | 1.0 | 5.0 | 0.00 | 0.06 | 0.06 | 93 | 1014.0 |
| 20260505201210 | 57 | 77 | 2.0 | 4.0 | 0.00 | 0.06 | 0.06 | 92 | 1014.1 |
| 20260505200607 | 57 | 72 | 0.0 | 2.0 | 0.00 | 0.06 | 0.06 | 92 | 1014.1 |
| 20260505195407 | 57 | 292 | 2.0 | 4.0 | 0.00 | 0.06 | 0.06 | 92 | 1014.1 |
| 20260505194807 | 57 | 325 | 2.0 | 3.0 | 0.00 | 0.06 | 0.06 | 92 | 1014.0 |
| 20260505194210 | 57 | 46 | 3.0 | 5.0 | 0.00 | 0.06 | 0.06 | 93 | 1014.0 |
| 20260505193607 | 57 | 46 | 2.0 | 4.0 | 0.00 | 0.06 | 0.06 | 93 | 1014.0 |
| 20260505192409 | 57 | 63 | 3.0 | 6.0 | 0.00 | 0.06 | 0.06 | 93 | 1014.0 |
| 20260505191809 | 57 | 59 | 2.0 | 4.0 | 0.00 | 0.06 | 0.06 | 93 | 1014.0 |
| 20260505191207 | 57 | 48 | 2.0 | 4.0 | 0.00 | 0.06 | 0.06 | 93 | 1014.0 |
| 20260505190607 | 57 | 52 | 1.0 | 2.0 | 0.00 | 0.06 | 0.06 | 93 | 1014.0 |
| 20260505185409 | 57 | 9 | 1.0 | 2.0 | 0.00 | 0.06 | 0.06 | 93 | 1014.0 |
| 20260505184808 | 57 | 329 | 2.0 | 3.0 | 0.00 | 0.06 | 0.06 | 93 | 1014.0 |
| 20260505184209 | 57 | 329 | 1.0 | 3.0 | 0.00 | 0.06 | 0.06 | 93 | 1014.0 |
| 20260505183607 | 57 | 32 | 2.0 | 3.0 | 0.00 | 0.06 | 0.06 | 93 | 1013.9 |
| 20260505182407 | 57 | 68 | 0.0 | 1.0 | 0.00 | 0.06 | 0.06 | 93 | 1013.8 |
| 20260505181807 | 57 | 24 | 1.0 | 2.0 | 0.00 | 0.06 | 0.06 | 93 | 1013.7 |
| 20260505181207 | 57 | 18 | 1.0 | 2.0 | 0.00 | 0.06 | 0.06 | 93 | 1013.6 |
| 20260505180607 | 57 | 62 | 1.0 | 3.0 | 0.00 | 0.06 | 0.06 | 93 | 1013.7 |
| 20260505175409 | 57 | 66 | 3.0 | 5.0 | 0.00 | 0.06 | 0.06 | 93 | 1013.6 |
| 20260505174810 | 57 | 82 | 3.0 | 4.0 | 0.00 | 0.06 | 0.06 | 93 | 1013.7 |
| 20260505174208 | 57 | 360 | 2.0 | 5.0 | 0.00 | 0.06 | 0.06 | 93 | 1013.7 |
| 20260505173609 | 57 | 37 | 3.0 | 5.0 | 0.00 | 0.06 | 0.06 | 93 | 1013.7 |
| 20260505172407 | 57 | 66 | 3.0 | 5.0 | 0.00 | 0.06 | 0.06 | 93 | 1013.7 |
| 20260505171807 | 57 | 66 | 2.0 | 4.0 | 0.00 | 0.06 | 0.06 | 93 | 1013.6 |
| 20260505171210 | 57 | 70 | 3.0 | 5.0 | 0.00 | 0.06 | 0.06 | 93 | 1013.6 |
| 20260505170607 | 57 | 70 | 4.0 | 5.0 | 0.00 | 0.06 | 0.06 | 93 | 1013.7 |
| 20260505165407 | 57 | 77 | 3.0 | 6.0 | 0.00 | 0.06 | 0.06 | 94 | 1013.6 |
| 20260505164807 | 57 | 75 | 4.0 | 8.0 | 0.00 | 0.06 | 0.06 | 94 | 1013.7 |
| 20260505164207 | 57 | 64 | 2.0 | 5.0 | 0.00 | 0.06 | 0.06 | 94 | 1013.7 |
| 20260505163609 | 57 | 69 | 3.0 | 5.0 | 0.00 | 0.06 | 0.06 | 94 | 1013.8 |
| 20260505162410 | 57 | 65 | 4.0 | 7.0 | 0.00 | 0.06 | 0.06 | 94 | 1013.8 |
| 20260505161807 | 57 | 68 | 4.0 | 6.0 | 0.00 | 0.06 | 0.06 | 94 | 1013.9 |
| 20260505161210 | 57 | 56 | 3.0 | 4.0 | 0.00 | 0.06 | 0.06 | 94 | 1014.0 |
| 20260505160607 | 57 | 68 | 3.0 | 6.0 | 0.00 | 0.06 | 0.06 | 93 | 1014.0 |
| 20260505152407 | 57 | 62 | 3.0 | 5.0 | 0.00 | 0.06 | 0.06 | 94 | 1014.0 |
| 20260505151807 | 57 | 68 | 3.0 | 6.0 | 0.00 | 0.06 | 0.06 | 94 | 1014.0 |
| 20260505151207 | 57 | 22 | 2.0 | 3.0 | 0.00 | 0.06 | 0.06 | 94 | 1014.0 |
| 20260505150607 | 57 | 71 | 2.0 | 3.0 | 0.00 | 0.06 | 0.06 | 94 | 1013.9 |
| 20260505140609 | 58 | 57 | 3.0 | 4.0 | 0.02 | 0.06 | 0.06 | 94 | 1014.2 |
| 20260505124808 | 59 | 84 | 0.0 | 0.0 | 0.02 | 0.05 | 0.05 | 90 | 1014.7 |
| 20260505124210 | 58 | 84 | 2.0 | 3.0 | 0.02 | 0.05 | 0.05 | 90 | 1014.7 |
| 20260505123609 | 58 | 84 | 2.0 | 3.0 | 0.00 | 0.03 | 0.03 | 89 | 1014.8 |
| 20260505123009 | 59 | 65 | 1.0 | 2.0 | 0.00 | 0.03 | 0.03 | 89 | 1014.7 |
| 20260505122407 | 58 | 58 | 2.0 | 4.0 | 0.00 | 0.03 | 0.03 | 88 | 1014.8 |
| 20260505121807 | 59 | 65 | 3.0 | 4.0 | 0.00 | 0.03 | 0.03 | 87 | 1014.9 |
| 20260505121208 | 59 | 68 | 5.0 | 8.0 | 0.00 | 0.03 | 0.03 | 86 | 1014.8 |
| 20260505120607 | 59 | 59 | 5.0 | 9.0 | 0.00 | 0.03 | 0.03 | 84 | 1014.7 |
| 20260505115407 | 60 | 66 | 4.0 | 5.0 | 0.00 | 0.03 | 0.03 | 81 | 1014.8 |
| 20260505114807 | 60 | 74 | 4.0 | 6.0 | 0.00 | 0.03 | 0.03 | 80 | 1014.7 |
| 20260505114207 | 60 | 68 | 3.0 | 4.0 | 0.00 | 0.03 | 0.03 | 81 | 1014.8 |
| 20260505113607 | 60 | 69 | 4.0 | 6.0 | 0.00 | 0.03 | 0.03 | 80 | 1014.8 |
| 20260505113017 | 60 | 67 | 5.0 | 7.0 | 0.00 | 0.03 | 0.03 | 79 | 1014.8 |
| 20260505112408 | 60 | 76 | 3.0 | 5.0 | 0.00 | 0.03 | 0.03 | 82 | 1014.7 |
| 20260505111810 | 60 | 95 | 4.0 | 6.0 | 0.00 | 0.03 | 0.03 | 81 | 1014.8 |
| 20260505111207 | 60 | 66 | 5.0 | 6.0 | 0.00 | 0.03 | 0.03 | 82 | 1014.7 |
| 20260505110607 | 60 | 73 | 5.0 | 6.0 | 0.00 | 0.03 | 0.03 | 82 | 1014.5 |
| 20260505101807 | 62 | 67 | 0.0 | 2.0 | 0.03 | 0.03 | 0.03 | 77 | 1015.3 |
| 20260505101210 | 62 | 67 | 1.0 | 2.0 | 0.03 | 0.03 | 0.03 | 79 | 1015.3 |
| 20260505100607 | 62 | 67 | 2.0 | 2.0 | 0.03 | 0.03 | 0.03 | 79 | 1015.2 |
| 20260505095407 | 62 | 67 | 1.0 | 2.0 | 0.03 | 0.03 | 0.03 | 79 | 1015.2 |
| 20260505094810 | 62 | 66 | 1.0 | 2.0 | 0.03 | 0.03 | 0.03 | 80 | 1015.1 |
| 20260505094207 | 62 | 76 | 2.0 | 2.0 | 0.02 | 0.02 | 0.02 | 78 | 1015.1 |
| 20260505093607 | 62 | 76 | 0.0 | 1.0 | 0.02 | 0.02 | 0.02 | 79 | 1015.1 |
| 20260505093008 | 62 | 76 | 0.0 | 1.0 | 0.02 | 0.02 | 0.02 | 79 | 1015.1 |
| 20260505092410 | 62 | 76 | 0.0 | 1.0 | 0.00 | 0.00 | 0.00 | 74 | 1015.2 |
| 20260505091808 | 62 | 76 | 0.0 | 0.0 | 0.00 | 0.00 | 0.00 | 75 | 1015.2 |
| 20260505091207 | 62 | 76 | 2.0 | 2.0 | 0.00 | 0.00 | 0.00 | 74 | 1015.2 |
| 20260505090607 | 62 | 76 | 0.0 | 3.0 | 0.00 | 0.00 | 0.00 | 75 | 1015.1 |
| 20260505085407 | 63 | 76 | 0.0 | 0.0 | 0.00 | 0.00 | 0.00 | 72 | 1015.0 |
| 20260505084810 | 63 | 76 | 0.0 | 0.0 | 0.00 | 0.00 | 0.00 | 74 | 1015.0 |
| 20260505084207 | 62 | 76 | 0.0 | 0.0 | 0.00 | 0.00 | 0.00 | 76 | 1015.0 |
| 20260505083607 | 62 | 76 | 1.0 | 2.0 | 0.00 | 0.00 | 0.00 | 78 | 1015.1 |
| 20260505082407 | 62 | 77 | 0.0 | 0.0 | 0.00 | 0.00 | 0.00 | 75 | 1015.1 |
| 20260505081810 | 62 | 76 | 1.0 | 2.0 | 0.00 | 0.00 | 0.00 | 74 | 1015.1 |
| 20260505081207 | 62 | 76 | 1.0 | 2.0 | 0.00 | 0.00 | 0.00 | 77 | 1015.0 |
| 20260505080607 | 63 | 76 | 0.0 | 2.0 | 0.00 | 0.00 | 0.00 | 78 | 1015.1 |
| 20260505075407 | 62 | 76 | 0.0 | 2.0 | 0.00 | 0.00 | 0.00 | 78 | 1015.1 |
| 20260505074807 | 62 | 77 | 1.0 | 3.0 | 0.00 | 0.00 | 0.00 | 78 | 1015.0 |
| 20260505074207 | 63 | 77 | 0.0 | 1.0 | 0.00 | 0.00 | 0.00 | 79 | 1015.0 |
| 20260505073607 | 62 | 77 | 0.0 | 2.0 | 0.00 | 0.00 | 0.00 | 79 | 1015.0 |
| 20260505073007 | 62 | 73 | 1.0 | 3.0 | 0.00 | 0.00 | 0.00 | 82 | 1014.9 |
| 20260505072410 | 62 | 69 | 0.0 | 1.0 | 0.00 | 0.00 | 0.00 | 84 | 1014.9 |
| 20260505071807 | 62 | 84 | 3.0 | 4.0 | 0.00 | 0.00 | 0.00 | 84 | 1014.9 |
| 20260505071207 | 62 | 76 | 2.0 | 4.0 | 0.00 | 0.00 | 0.00 | 84 | 1014.7 |
| 20260505070607 | 62 | 63 | 2.0 | 4.0 | 0.00 | 0.00 | 0.00 | 84 | 1014.6 |
| 20260505065407 | 62 | 68 | 4.0 | 5.0 | 0.00 | 0.00 | 0.00 | 83 | 1014.6 |
| 20260505064810 | 62 | 78 | 3.0 | 5.0 | 0.00 | 0.00 | 0.00 | 83 | 1014.6 |
| 20260505064207 | 62 | 75 | 4.0 | 5.0 | 0.00 | 0.00 | 0.00 | 83 | 1014.6 |
| 20260505063607 | 62 | 64 | 4.0 | 5.0 | 0.00 | 0.00 | 0.00 | 83 | 1014.6 |
| 20260505063008 | 62 | 68 | 3.0 | 5.0 | 0.00 | 0.00 | 0.00 | 83 | 1014.6 |
| 20260505062407 | 62 | 71 | 4.0 | 5.0 | 0.00 | 0.00 | 0.00 | 83 | 1014.5 |
| 20260505061807 | 62 | 67 | 3.0 | 4.0 | 0.00 | 0.00 | 0.00 | 84 | 1014.6 |
| 20260505061209 | 61 | 65 | 3.0 | 5.0 | 0.00 | 0.00 | 0.00 | 84 | 1014.5 |
| 20260505060607 | 61 | 71 | 4.0 | 6.0 | 0.00 | 0.00 | 0.00 | 84 | 1014.6 |
| 20260505055407 | 62 | 69 | 2.0 | 4.0 | 0.00 | 0.00 | 0.00 | 84 | 1014.3 |
| 20260505054807 | 62 | 73 | 4.0 | 5.0 | 0.00 | 0.00 | 0.00 | 85 | 1014.2 |
| 20260505054208 | 61 | 65 | 4.0 | 7.0 | 0.00 | 0.00 | 0.00 | 85 | 1014.1 |
| 20260505053607 | 62 | 57 | 3.0 | 5.0 | 0.00 | 0.00 | 0.00 | 85 | 1014.0 |
| 20260505052408 | 61 | 64 | 6.0 | 9.0 | 0.00 | 0.00 | 0.00 | 86 | 1014.0 |
| 20260505051807 | 61 | 66 | 4.0 | 5.0 | 0.00 | 0.00 | 0.00 | 86 | 1014.1 |
| 20260505051207 | 61 | 65 | 3.0 | 5.0 | 0.00 | 0.00 | 0.00 | 87 | 1014.0 |
| 20260505050607 | 61 | 60 | 4.0 | 6.0 | 0.00 | 0.00 | 0.00 | 87 | 1014.0 |
| 20260505041207 | 60 | 74 | 4.0 | 5.0 | 0.00 | 0.00 | 0.00 | 92 | 1014.0 |
| 20260505040607 | 60 | 61 | 4.0 | 7.0 | 0.00 | 0.00 | 0.00 | 92 | 1014.0 |
| 20260505035407 | 60 | 58 | 3.0 | 4.0 | 0.00 | 0.00 | 0.00 | 92 | 1014.0 |
| 20260505034807 | 60 | 63 | 2.0 | 5.0 | 0.00 | 0.00 | 0.00 | 92 | 1014.0 |
| 20260505034207 | 60 | 60 | 4.0 | 6.0 | 0.00 | 0.00 | 0.00 | 93 | 1014.0 |
| 20260505033607 | 60 | 59 | 3.0 | 4.0 | 0.00 | 0.00 | 0.00 | 93 | 1013.9 |
| 20260505033010 | 60 | 62 | 3.0 | 5.0 | 0.00 | 0.00 | 0.00 | 93 | 1014.0 |
| 20260505032407 | 60 | 63 | 3.0 | 5.0 | 0.00 | 0.00 | 0.00 | 93 | 1014.1 |
| 20260505031810 | 60 | 37 | 2.0 | 3.0 | 0.00 | 0.00 | 0.00 | 93 | 1014.1 |
| 20260505031207 | 60 | 63 | 3.0 | 6.0 | 0.00 | 0.00 | 0.00 | 93 | 1014.2 |
| 20260505030609 | 60 | 64 | 2.0 | 3.0 | 0.00 | 0.00 | 0.00 | 93 | 1014.3 |
| 20260505025407 | 60 | 69 | 3.0 | 5.0 | 0.00 | 0.00 | 0.00 | 92 | 1014.3 |
| 20260505024810 | 60 | 64 | 2.0 | 4.0 | 0.00 | 0.00 | 0.00 | 92 | 1014.3 |
| 20260505024208 | 60 | 72 | 3.0 | 4.0 | 0.00 | 0.00 | 0.00 | 92 | 1014.3 |
| 20260505023607 | 60 | 66 | 2.0 | 5.0 | 0.00 | 0.00 | 0.00 | 92 | 1014.3 |
| 20260505022408 | 59 | 67 | 1.0 | 2.0 | 0.00 | 0.00 | 0.00 | 92 | 1014.4 |
| 20260505021808 | 59 | 69 | 4.0 | 5.0 | 0.00 | 0.00 | 0.00 | 92 | 1014.5 |
| 20260505021207 | 59 | 70 | 3.0 | 5.0 | 0.00 | 0.00 | 0.00 | 91 | 1014.6 |
| 20260505020607 | 59 | 67 | 3.0 | 5.0 | 0.00 | 0.00 | 0.00 | 91 | 1014.7 |
| 20260505015407 | 59 | 68 | 2.0 | 4.0 | 0.00 | 0.00 | 0.00 | 90 | 1014.7 |
| 20260505014807 | 59 | 67 | 3.0 | 4.0 | 0.00 | 0.00 | 0.00 | 89 | 1014.8 |
| 20260505014210 | 59 | 71 | 2.0 | 3.0 | 0.00 | 0.00 | 0.00 | 87 | 1014.8 |
| 20260505013609 | 59 | 76 | 2.0 | 4.0 | 0.00 | 0.00 | 0.00 | 87 | 1014.7 |
| 20260505012410 | 59 | 70 | 2.0 | 3.0 | 0.00 | 0.00 | 0.00 | 86 | 1014.7 |
| 20260505011810 | 59 | 74 | 3.0 | 4.0 | 0.00 | 0.00 | 0.00 | 85 | 1014.8 |
| 20260505011207 | 59 | 69 | 3.0 | 5.0 | 0.00 | 0.00 | 0.00 | 85 | 1014.9 |
| 20260505010607 | 59 | 67 | 2.0 | 5.0 | 0.00 | 0.00 | 0.00 | 86 | 1014.9 |
| 20260505005407 | 59 | 65 | 3.0 | 5.0 | 0.00 | 0.00 | 0.00 | 86 | 1015.3 |
| 20260505004807 | 59 | 70 | 2.0 | 3.0 | 0.00 | 0.00 | 0.00 | 85 | 1015.4 |
| 20260505004207 | 59 | 68 | 2.0 | 3.0 | 0.00 | 0.00 | 0.00 | 85 | 1015.5 |
| 20260505003610 | 59 | 68 | 2.0 | 3.0 | 0.00 | 0.00 | 0.00 | 84 | 1015.6 |
| 20260505002408 | 59 | 68 | 2.0 | 3.0 | 0.00 | 0.00 | 0.00 | 84 | 1015.5 |
| 20260505001808 | 59 | 58 | 2.0 | 2.0 | 0.00 | 0.00 | 0.00 | 84 | 1015.6 |
| 20260505001209 | 59 | 54 | 3.0 | 4.0 | 0.00 | 0.00 | 0.00 | 84 | 1015.6 |
| 20260505000607 | 59 | 69 | 3.0 | 4.0 | 0.00 | 0.00 | 0.00 | 83 | 1015.7 |
| 20260504235410 | 60 | 65 | 3.0 | 5.0 | 0.00 | 0.00 | 0.00 | 82 | 1015.8 |
| 20260504235235 | 60 | 68 | 3.0 | 4.0 | 0.00 | 0.00 | 0.00 | 81 | 1015.8 |
| 20260504234855 | 60 | 72 | 3.0 | 4.0 | 0.00 | 0.00 | 0.00 | 81 | 1015.8 |
| 20260504234807 | 60 | 72 | 3.0 | 4.0 | 0.00 | 0.00 | 0.00 | 81 | 1015.8 |
| 20260504234209 | 60 | 68 | 3.0 | 4.0 | 0.00 | 0.00 | 0.00 | 81 | 1015.8 |
| 20260504233607 | 60 | 79 | 3.0 | 4.0 | 0.00 | 0.00 | 0.00 | 80 | 1015.9 |
| 20260504233007 | 60 | 73 | 3.0 | 4.0 | 0.00 | 0.00 | 0.00 | 79 | 1016.0 |
| 20260504232453 | 61 | 70 | 3.0 | 5.0 | 0.00 | 0.00 | 0.00 | 76 | 1016.1 |
| 20260504232409 | 60 | 67 | 3.0 | 4.0 | 0.00 | 0.00 | 0.00 | 78 | 1016.0 |
| 20260504231810 | 61 | 70 | 3.0 | 5.0 | 0.00 | 0.00 | 0.00 | 76 | 1016.1 |
| 20260504231207 | 61 | 74 | 3.0 | 5.0 | 0.00 | 0.00 | 0.00 | 76 | 1016.2 |
| 20260504230609 | 61 | 63 | 2.0 | 4.0 | 0.00 | 0.00 | 0.00 | 75 | 1016.3 |
| 20260504225407 | 61 | 67 | 4.0 | 5.0 | 0.00 | 0.00 | 0.00 | 75 | 1016.4 |
| 20260504224807 | 61 | 68 | 4.0 | 5.0 | 0.00 | 0.00 | 0.00 | 74 | 1016.5 |
| 20260504224210 | 62 | 70 | 4.0 | 5.0 | 0.00 | 0.00 | 0.00 | 75 | 1016.5 |
| 20260504223608 | 62 | 65 | 3.0 | 4.0 | 0.00 | 0.00 | 0.00 | 75 | 1016.5 |
| 20260504223010 | 62 | 70 | 3.0 | 5.0 | 0.00 | 0.00 | 0.00 | 75 | 1016.5 |
| 20260504222410 | 62 | 67 | 3.0 | 5.0 | 0.00 | 0.00 | 0.00 | 74 | 1016.6 |
| 20260504221808 | 62 | 60 | 3.0 | 5.0 | 0.00 | 0.00 | 0.00 | 74 | 1016.6 |
| 20260504221208 | 62 | 64 | 3.0 | 5.0 | 0.00 | 0.00 | 0.00 | 73 | 1016.5 |
| 20260504220607 | 62 | 63 | 4.0 | 5.0 | 0.00 | 0.00 | 0.00 | 72 | 1016.6 |
| 20260504215407 | 62 | 62 | 3.0 | 5.0 | 0.00 | 0.00 | 0.00 | 71 | 1016.7 |
| 20260504214808 | 62 | 65 | 3.0 | 4.0 | 0.00 | 0.00 | 0.00 | 70 | 1016.7 |
| 20260504214207 | 62 | 62 | 3.0 | 5.0 | 0.00 | 0.00 | 0.00 | 70 | 1016.6 |